Location: Mahannah Oil Field
(37.4664°N, 96.6003°W)
Time: 03:02:31
(UTC+00:00)

deb Explorer IX - Pass Details

Date: 27 January 2021
Orbit: 537 x 1102 km, 38.8° (Epoch: 01 March)

Event Time Altitude Azimuth Distance (km) Brightness Sun altitude
Rises 23:38:17 0° 258° (WSW) 3,844 ? 0.5°
Reaches altitude 10° 23:41:08 10° 258° (WSW) 2,840 ? 0.0°
Maximum altitude 23:48:05 88° 350° (N) 953 ? -1.3°
Drops below altitude 10° 23:54:05 10° 79° (E) 2,474 ? -2.4°
Enters shadow 23:55:47 - 80° (E) 3,085 ? -2.7°
Sets 23:56:26 0° 80° (E) 3,323 - -2.8°
